When you browse on this site, cookies collect data to enhance your experience and personalize the content and advertising you see.
Visit our Privacy Policy to learn more. By continuing to use the site, you agree to this use of cookies and data.
  • In Österreich
  • Länderverzeichnis
  • Für 7 Tage
  • Wassertemperatur
  • Satellitenkarten
  • Wetterkarte
  • News
  • Widgets
  • user-avatar
    Anmelden

    Stündliche Wetter Zhmerynka

    Heute, 18 Juli, Donnerstag

    Zeit Temperatur Niederschläge Wind Luftdruck Luftfeuchtigkeit
    00:00 +11°C° 0 mm 3 m/S 729 mmHg 94%
    01:00 +11°C° 0 mm 3 m/S 729 mmHg 94%
    02:00 +10°C° 0 mm 2 m/S 730 mmHg 95%
    03:00 +10°C° 0 mm 2 m/S 730 mmHg 95%
    04:00 +10°C° 0 mm 2 m/S 730 mmHg 95%
    05:00 +10°C° 0 mm 2 m/S 730 mmHg 96%
    06:00 +11°C° 0 mm 3 m/S 730 mmHg 90%
    07:00 +13°C° 0 mm 3 m/S 730 mmHg 85%
    08:00 +15°C° 0 mm 4 m/S 731 mmHg 81%
    09:00 +17°C° 0 mm 4 m/S 731 mmHg 75%
    10:00 +18°C° 0 mm 4 m/S 731 mmHg 69%
    11:00 +20°C° 0 mm 4 m/S 731 mmHg 62%
    12:00 +20°C° 0.1 mm 4 m/S 731 mmHg 62%
    13:00 +21°C° 0.1 mm 5 m/S 731 mmHg 61%
    14:00 +21°C° 0.1 mm 5 m/S 731 mmHg 61%
    15:00 +21°C° 0.2 mm 5 m/S 731 mmHg 64%
    16:00 +20°C° 0.2 mm 4 m/S 732 mmHg 67%
    17:00 +20°C° 0.2 mm 4 m/S 732 mmHg 70%
    18:00 +19°C° 0 mm 3 m/S 732 mmHg 76%
    19:00 +17°C° 0 mm 3 m/S 732 mmHg 82%
    20:00 +16°C° 0 mm 2 m/S 732 mmHg 88%
    21:00 +15°C° 0 mm 2 m/S 732 mmHg 89%
    22:00 +15°C° 0 mm 2 m/S 732 mmHg 90%
    23:00 +14°C° 0 mm 2 m/S 733 mmHg 91%

    Morgen, 19 Juli, Freitag

    Zeit Temperatur Niederschläge Wind Luftdruck Luftfeuchtigkeit
    00:00 +14°C° 0 mm 2 m/S 733 mmHg 92%
    01:00 +14°C° 0 mm 2 m/S 733 mmHg 92%
    02:00 +14°C° 0 mm 2 m/S 733 mmHg 93%
    03:00 +13°C° 0 mm 2 m/S 733 mmHg 93%
    04:00 +13°C° 0 mm 2 m/S 733 mmHg 93%
    05:00 +13°C° 0 mm 2 m/S 733 mmHg 93%
    06:00 +15°C° 0 mm 2 m/S 734 mmHg 87%
    07:00 +17°C° 0 mm 2 m/S 734 mmHg 81%
    08:00 +19°C° 0 mm 2 m/S 735 mmHg 75%
    09:00 +20°C° 0 mm 2 m/S 735 mmHg 69%
    10:00 +21°C° 0 mm 2 m/S 735 mmHg 63%
    11:00 +23°C° 0 mm 2 m/S 735 mmHg 57%
    12:00 +24°C° 0.1 mm 2 m/S 735 mmHg 55%
    13:00 +24°C° 0.1 mm 2 m/S 735 mmHg 54%
    14:00 +25°C° 0.1 mm 2 m/S 735 mmHg 52%
    15:00 +24°C° 0.2 mm 2 m/S 734 mmHg 55%
    16:00 +24°C° 0.2 mm 2 m/S 734 mmHg 58%
    17:00 +24°C° 0.2 mm 2 m/S 734 mmHg 62%
    18:00 +22°C° 0.1 mm 1 m/S 734 mmHg 67%
    19:00 +21°C° 0.1 mm 1 m/S 734 mmHg 73%
    20:00 +17°C° 0.1 mm 0 m/S 734 mmHg 78%
    21:00 +17°C° 0 mm 0 m/S 735 mmHg 79%
    22:00 +16°C° 0 mm 0 m/S 735 mmHg 80%
    23:00 +18°C° 0 mm 1 m/S 735 mmHg 81%

    übermorgen, 20 Juli, Samstag

    Zeit Temperatur Niederschläge Wind Luftdruck Luftfeuchtigkeit
    00:00 +16°C° 0 mm 1 m/S 735 mmHg 82%
    01:00 +16°C° 0 mm 1 m/S 735 mmHg 83%
    02:00 +16°C° 0 mm 1 m/S 735 mmHg 84%
    03:00 +16°C° 0.3 mm 1 m/S 735 mmHg 84%
    04:00 +15°C° 0.3 mm 0 m/S 735 mmHg 84%
    05:00 +15°C° 0.3 mm 0 m/S 735 mmHg 85%
    06:00 +16°C° 0.5 mm 0 m/S 736 mmHg 81%
    07:00 +18°C° 0.5 mm 0 m/S 736 mmHg 78%
    08:00 +19°C° 0.5 mm 0 m/S 736 mmHg 75%
    09:00 +22°C° 0.4 mm 1 m/S 736 mmHg 71%
    10:00 +24°C° 0.4 mm 1 m/S 737 mmHg 67%
    11:00 +25°C° 0.4 mm 2 m/S 737 mmHg 63%
    12:00 +25°C° 0.4 mm 2 m/S 737 mmHg 61%
    13:00 +26°C° 0.4 mm 2 m/S 737 mmHg 58%
    14:00 +26°C° 0.4 mm 2 m/S 737 mmHg 55%
    15:00 +26°C° 0 mm 2 m/S 737 mmHg 56%
    16:00 +26°C° 0 mm 2 m/S 737 mmHg 56%
    17:00 +26°C° 0 mm 2 m/S 737 mmHg 57%
    18:00 +24°C° 0 mm 2 m/S 737 mmHg 62%
    19:00 +21°C° 0 mm 2 m/S 737 mmHg 67%
    20:00 +21°C° 0 mm 1 m/S 737 mmHg 71%
    21:00 +20°C° 0 mm 1 m/S 737 mmHg 73%
    22:00 +19°C° 0 mm 1 m/S 737 mmHg 74%
    23:00 +19°C° 0 mm 1 m/S 737 mmHg 75%

    21 Juli, Sonntag

    Zeit Temperatur Niederschläge Wind Luftdruck Luftfeuchtigkeit
    00:00 +18°C° 0 mm 1 m/S 737 mmHg 77%
    01:00 +18°C° 0 mm 1 m/S 737 mmHg 78%
    02:00 +16°C° 0 mm 1 m/S 737 mmHg 80%
    03:00 +16°C° 0 mm 1 m/S 737 mmHg 80%
    04:00 +16°C° 0 mm 1 m/S 737 mmHg 80%
    05:00 +15°C° 0 mm 0 m/S 737 mmHg 81%
    06:00 +19°C° 0 mm 1 m/S 737 mmHg 76%
    07:00 +21°C° 0 mm 1 m/S 737 mmHg 71%
    08:00 +23°C° 0 mm 1 m/S 737 mmHg 66%
    09:00 +24°C° 0 mm 1 m/S 738 mmHg 62%
    10:00 +26°C° 0 mm 1 m/S 738 mmHg 59%
    11:00 +27°C° 0 mm 1 m/S 738 mmHg 56%
    12:00 +27°C° 0.2 mm 1 m/S 738 mmHg 55%
    13:00 +28°C° 0.2 mm 2 m/S 737 mmHg 54%
    14:00 +28°C° 0.2 mm 2 m/S 737 mmHg 54%
    15:00 +28°C° 0.2 mm 2 m/S 737 mmHg 55%
    16:00 +28°C° 0.2 mm 2 m/S 737 mmHg 55%
    17:00 +28°C° 0.2 mm 1 m/S 737 mmHg 56%
    18:00 +27°C° 0.2 mm 1 m/S 737 mmHg 62%
    19:00 +25°C° 0.2 mm 1 m/S 736 mmHg 67%
    20:00 +23°C° 0.2 mm 1 m/S 736 mmHg 73%
    21:00 +22°C° 0.6 mm 1 m/S 736 mmHg 76%
    22:00 +22°C° 0.6 mm 1 m/S 736 mmHg 79%
    23:00 +20°C° 0.6 mm 2 m/S 736 mmHg 82%

    22 Juli, Montag

    Zeit Temperatur Niederschläge Wind Luftdruck Luftfeuchtigkeit
    00:00 +20°C° 0.5 mm 2 m/S 736 mmHg 83%
    01:00 +19°C° 0.5 mm 2 m/S 736 mmHg 84%
    02:00 +19°C° 0.5 mm 2 m/S 736 mmHg 85%
    03:00 +19°C° 0.2 mm 2 m/S 735 mmHg 87%
    04:00 +19°C° 0.2 mm 3 m/S 735 mmHg 88%
    05:00 +18°C° 0.2 mm 3 m/S 735 mmHg 90%
    06:00 +20°C° 0.2 mm 3 m/S 735 mmHg 88%
    07:00 +21°C° 0.2 mm 4 m/S 735 mmHg 86%
    08:00 +22°C° 0.2 mm 4 m/S 736 mmHg 84%
    09:00 +23°C° 0.1 mm 4 m/S 736 mmHg 79%
    10:00 +25°C° 0.1 mm 4 m/S 736 mmHg 74%
    11:00 +27°C° 0.1 mm 4 m/S 736 mmHg 68%
    12:00 +27°C° 0.4 mm 4 m/S 736 mmHg 67%
    13:00 +27°C° 0.4 mm 4 m/S 736 mmHg 66%
    14:00 +27°C° 0.4 mm 5 m/S 735 mmHg 65%
    15:00 +27°C° 0.2 mm 5 m/S 735 mmHg 67%
    16:00 +26°C° 0.2 mm 5 m/S 735 mmHg 69%
    17:00 +26°C° 0.2 mm 5 m/S 735 mmHg 71%
    18:00 +23°C° 0.1 mm 5 m/S 735 mmHg 76%
    19:00 +22°C° 0.1 mm 4 m/S 735 mmHg 82%
    20:00 +20°C° 0.1 mm 3 m/S 735 mmHg 87%
    21:00 +20°C° 0 mm 3 m/S 735 mmHg 87%
    22:00 +19°C° 0 mm 4 m/S 735 mmHg 86%
    23:00 +19°C° 0 mm 4 m/S 735 mmHg 86%

    23 Juli, Dienstag

    Zeit Temperatur Niederschläge Wind Luftdruck Luftfeuchtigkeit
    00:00 +18°C° 0 mm 3 m/S 735 mmHg 88%
    01:00 +18°C° 0 mm 3 m/S 735 mmHg 90%
    02:00 +17°C° 0 mm 3 m/S 735 mmHg 92%
    03:00 +17°C° 0.2 mm 3 m/S 734 mmHg 93%
    04:00 +17°C° 0.2 mm 3 m/S 734 mmHg 93%
    05:00 +17°C° 0.2 mm 3 m/S 734 mmHg 94%
    06:00 +18°C° 0.2 mm 3 m/S 734 mmHg 91%
    07:00 +19°C° 0.2 mm 4 m/S 734 mmHg 89%
    08:00 +20°C° 0.2 mm 5 m/S 734 mmHg 86%
    09:00 +21°C° 0.9 mm 5 m/S 734 mmHg 81%
    10:00 +21°C° 0.9 mm 5 m/S 734 mmHg 77%
    11:00 +22°C° 0.9 mm 6 m/S 734 mmHg 72%
    12:00 +23°C° 0.1 mm 6 m/S 734 mmHg 69%
    13:00 +23°C° 0.1 mm 6 m/S 734 mmHg 65%
    14:00 +23°C° 0.1 mm 6 m/S 734 mmHg 62%
    15:00 +23°C° 0 mm 6 m/S 734 mmHg 64%
    16:00 +23°C° 0 mm 6 m/S 733 mmHg 67%
    17:00 +22°C° 0 mm 6 m/S 733 mmHg 69%
    18:00 +21°C° 0 mm 5 m/S 733 mmHg 74%
    19:00 +20°C° 0 mm 4 m/S 733 mmHg 79%
    20:00 +18°C° 0 mm 4 m/S 733 mmHg 85%
    21:00 +18°C° 0 mm 4 m/S 733 mmHg 88%
    22:00 +17°C° 0 mm 4 m/S 733 mmHg 90%
    23:00 +15°C° 0 mm 4 m/S 733 mmHg 93%
    Mehr zeigen